TimeMDT,TemperatureF,Dew PointF,Humidity,Sea Level PressureIn,VisibilityMPH,Wind Direction,Wind SpeedMPH,Gust SpeedMPH,PrecipitationIn,Events,Conditions,WindDirDegrees,DateUTC
12:56 AM,64.9,50.0,58,29.97,10.0,NNW,16.1,-,N/A,,Overcast,330,2014-07-07 06:56:00
1:56 AM,60.1,54.0,80,30.01,10.0,NNW,23.0,35.7,0.00,,Mostly Cloudy,340,2014-07-07 07:56:00
2:40 AM,57.0,55.0,93,30.12,6.0,North,24.2,33.4,0.01,Rain,Light Rain,10,2014-07-07 08:40:00
2:53 AM,55.4,55.4,100,30.13,10.0,North,24.2,33.4,0.02,Rain,Light Rain,10,2014-07-07 08:53:00
2:56 AM,55.9,55.0,97,30.04,10.0,North,25.3,33.4,0.02,Rain,Light Rain,10,2014-07-07 08:56:00
3:41 AM,55.9,53.1,90,30.16,10.0,North,21.9,29.9,0.02,,Overcast,10,2014-07-07 09:41:00
3:56 AM,55.0,53.1,93,30.08,10.0,North,19.6,-,0.02,,Mostly Cloudy,10,2014-07-07 09:56:00
4:56 AM,54.0,52.0,93,30.12,10.0,North,15.0,-,N/A,,Mostly Cloudy,360,2014-07-07 10:56:00
5:56 AM,53.1,51.1,93,30.13,10.0,WSW,8.1,-,N/A,,Mostly Cloudy,250,2014-07-07 11:56:00
6:56 AM,55.0,53.1,93,30.14,10.0,West,6.9,-,N/A,,Clear,280,2014-07-07 12:56:00
7:56 AM,59.0,53.1,81,30.14,10.0,West,11.5,-,N/A,,Clear,280,2014-07-07 13:56:00
8:56 AM,62.1,52.0,70,30.16,10.0,NW,11.5,-,N/A,,Clear,310,2014-07-07 14:56:00
9:56 AM,64.9,52.0,63,30.17,10.0,NNW,11.5,-,N/A,,Partly Cloudy,340,2014-07-07 15:56:00
10:56 AM,68.0,48.9,50,30.17,10.0,North,11.5,-,N/A,,Clear,350,2014-07-07 16:56:00
11:56 AM,71.1,48.0,44,30.17,10.0,Variable,6.9,-,N/A,,Scattered Clouds,0,2014-07-07 17:56:00
12:56 PM,71.1,46.9,42,30.17,10.0,Variable,3.5,-,N/A,,Mostly Cloudy,0,2014-07-07 18:56:00
1:56 PM,71.1,46.9,42,30.17,10.0,Variable,6.9,-,N/A,,Scattered Clouds,0,2014-07-07 19:56:00
2:56 PM,73.0,46.9,39,30.16,10.0,NNE,10.4,-,N/A,,Mostly Cloudy,20,2014-07-07 20:56:00
3:56 PM,75.0,46.9,37,30.15,-9999.0,North,11.5,-,N/A,,Mostly Cloudy,10,2014-07-07 21:56:00
4:56 PM,73.9,46.0,37,30.14,-9999.0,Calm,Calm,-,N/A,,Clear,0,2014-07-07 22:56:00
5:56 PM,75.0,46.9,37,30.14,-9999.0,North,6.9,-,N/A,,Clear,360,2014-07-07 23:56:00
6:56 PM,73.9,46.0,37,30.12,-9999.0,Calm,Calm,-,N/A,,Clear,0,2014-07-08 00:56:00
7:56 PM,73.0,48.0,41,30.12,-9999.0,NNE,4.6,-,N/A,,Clear,30,2014-07-08 01:56:00
8:56 PM,66.9,50.0,54,30.12,-9999.0,ENE,6.9,-,N/A,,Clear,70,2014-07-08 02:56:00
9:56 PM,63.0,48.9,60,30.13,-9999.0,East,8.1,-,N/A,,Clear,90,2014-07-08 03:56:00
10:56 PM,61.0,46.9,60,30.13,-9999.0,SSE,5.8,-,N/A,,Clear,150,2014-07-08 04:56:00
11:56 PM,59.0,46.9,64,30.13,-9999.0,East,8.1,-,N/A,,Clear,90,2014-07-08 05:56:00